Weather History for Eugene, OR

Change the Weather History Date:

Saturday, March 29, 2014

  Actual Average Record
Temperature  
Mean Temperature 51 °F 48 °F  
Max Temperature 56 °F 58 °F 80 °F (1923)
Min Temperature 45 °F 38 °F 28 °F (1954)
Degree Days  
Heating Degree Days 14 17  
Month to date heating degree days 442 534  
Since 1 July heating degree days 4009 3861  
Cooling Degree Days 0 0  
Month to date cooling degree days 0 0  
Year to date cooling degree days 0 0  
Moisture  
Dew Point 43 °F    
Average Humidity 74    
Maximum Humidity 86    
Minimum Humidity 61    
Precipitation  
Precipitation 0.29 in 0.15 in 2.21 in (1963)
Month to date precipitation 5.75 4.69  
Year to date precipitation 16.30 16.99  
Sea Level Pressure  
Sea Level Pressure 29.90 in    
Wind  
Wind Speed 14 mph (SSW)    
Max Wind Speed 29 mph    
Max Gust Speed 37 mph    
Visibility 10 miles    
Events Rain    
T = Trace of Precipitation, MM = Missing Value Source: NWS Daily Summary

Daily Weather History Graph

Daily Weather History Graph

Search for Another Location

Airport:

Trip Planner

Search our weather history database for the weather conditions in past years. The results will help you decide how hot, cold, wet, or windy it might be!

Date:

Astronomy

Mar. 29, 2014 Rise Set
Actual Time 6:59 AM PDT 7:36 PM PDT
Civil Twilight 6:30 AM PDT 8:05 PM PDT
Nautical Twilight 5:55 AM PDT 8:40 PM PDT
Astronomical Twilight 5:20 AM PDT 9:15 PM PDT
Moon 6:13 AM PDT (3/29) 6:46 PM PDT (3/29)
Length of Visible Light 13h 35m
Length of Day
12h 37m
Waning Crescent, 1% of the Moon is Illuminated
Mar 29
Waning Crescent
Mar 30
New
Apr 7
First Quarter
Apr 15
Full
Apr 22
Last Quarter

Hourly Weather History & Observations

Time (PDT) Temp. Windchill Dew Point Humidity Pressure Visibility Wind Dir Wind Speed Gust Speed Precip Events Conditions
12:54 AM 48.0 °F - 44.1 °F 86% 29.86 in 10.0 mi South 11.5 mph - 0.00 in   Mostly Cloudy
1:54 AM 48.9 °F - 44.1 °F 83% 29.86 in 10.0 mi South 15.0 mph - 0.00 in   Scattered Clouds
2:54 AM 48.0 °F - 44.1 °F 86% 29.86 in 10.0 mi South 12.7 mph - N/A   Partly Cloudy
3:54 AM 48.0 °F - 43.0 °F 83% 29.86 in 10.0 mi South 13.8 mph - N/A   Mostly Cloudy
4:54 AM 48.0 °F - 43.0 °F 83% 29.86 in 10.0 mi South 15.0 mph - 0.02 in   Mostly Cloudy
5:54 AM 46.9 °F - 43.0 °F 86% 29.87 in 10.0 mi South 11.5 mph - 0.00 in   Mostly Cloudy
6:54 AM 46.0 °F 40.2 °F 41.0 °F 83% 29.86 in 10.0 mi South 12.7 mph - N/A   Scattered Clouds
7:54 AM 48.0 °F - 42.1 °F 80% 29.87 in 10.0 mi South 17.3 mph - N/A   Mostly Cloudy
8:54 AM 48.0 °F - 43.0 °F 83% 29.89 in 6.0 mi SSW 19.6 mph 31.1 mph 0.05 in Rain Light Rain
9:54 AM 48.9 °F - 45.0 °F 86% 29.89 in 8.0 mi SSW 16.1 mph 24.2 mph 0.09 in Rain Light Rain
10:54 AM 50.0 °F - 46.0 °F 86% 29.90 in 7.0 mi SSW 10.4 mph - 0.05 in Rain Light Rain
11:54 AM 52.0 °F - 45.0 °F 77% 29.90 in 10.0 mi SSW 23.0 mph 28.8 mph 0.01 in Rain Light Rain
12:54 PM 52.0 °F - 46.0 °F 80% 29.91 in 9.0 mi SSW 19.6 mph 24.2 mph 0.02 in Rain Light Rain
1:54 PM 54.0 °F - 46.9 °F 77% 29.90 in 10.0 mi SSW 20.7 mph 28.8 mph 0.02 in Rain Light Rain
2:54 PM 50.0 °F - 44.1 °F 80% 29.91 in 8.0 mi SW 16.1 mph - 0.02 in Rain Rain
3:54 PM 55.0 °F - 45.0 °F 69% 29.91 in 10.0 mi SW 15.0 mph - 0.01 in   Scattered Clouds
4:54 PM 55.0 °F - 43.0 °F 64% 29.91 in 10.0 mi West 13.8 mph - N/A   Mostly Cloudy
5:54 PM 53.1 °F - 41.0 °F 64% 29.91 in 10.0 mi West 12.7 mph - 0.00 in   Mostly Cloudy
6:54 PM 50.0 °F - 43.0 °F 77% 29.93 in 10.0 mi WSW 12.7 mph - 0.00 in   Mostly Cloudy
7:54 PM 46.9 °F - 41.0 °F 80% 29.94 in 10.0 mi SW 9.2 mph - N/A   Mostly Cloudy
8:54 PM 45.0 °F 41.8 °F 42.1 °F 90% 29.96 in 10.0 mi South 5.8 mph - 0.00 in   Scattered Clouds
9:54 PM 46.0 °F 42.5 °F 42.1 °F 86% 29.97 in 10.0 mi South 6.9 mph - N/A   Overcast
10:41 PM 44.1 °F 39.5 °F 41.0 °F 89% 29.97 in 10.0 mi South 8.1 mph - N/A   Scattered Clouds
10:54 PM 44.1 °F 41.5 °F 41.0 °F 89% 29.97 in 10.0 mi SSE 4.6 mph - N/A   Scattered Clouds
11:54 PM 45.0 °F 40.1 °F 42.1 °F 90% - 10.0 mi South 9.2 mph - 0.00 in Rain Light Rain